Content
SEND FEEDBACK

Daily
Averages
Monthly
Summary
Thailand

BANGKOK, THAILAND


Home > Asia > Thailand
Elevation: 66 feet     Latitude: 13 44N     Longitude: 100 34E

WEATHER
 
SELECT A DAY
Number of Records: 235,599;   Date Range: 7/1/96 - 8/30/14
 
SHARE

PRINT THIS DATA

[ ← Previous Day ]
WEATHER ALMANAC - APRIL 20, 2013
[ Next Day → ]
[ °C ]   °F
Weather ElementAverageHighLow
Temperature90.4 °F98.6 °F (1:00 pm)82.4 °F (6:00 am)
Dewpoint75.7 °F78.8 °F (4:00 am)73 °F (1:00 pm)
Humidity62.8 %89 % (6:00 am)35 % (1:00 pm)
Barometer29.71 in29.77 in (8:00 am)29.65 in (3:00 pm)
Wind Speed6.8 mph11.5 mph (11:30 am)
Weather ElementAverage
Visibility6.2 mi
Wind DirectionSSW (188.6 °)

Weather ElementTotal
Precipitation---
Cooling Degree Days25.5 (Base 65)
Growing Degree Days40.5 (Base 50)
Averaged from 51 records on April 20, 2013
WEATHER CONDITIONS BREAKOUT
WIND DIRECTION BREAKOUT
WEATHER BY HOUR - APRIL 20, 2013
[ °C ]   °F
Local TimeTemperatureDewpointHumidityBarometerVisibilityWind DirectionWind SpeedGust SpeedPrecipitationEventsConditions
12:30 AM87.8 °F73.4 °F62 %29.71 in6.2 miSSW (210°)5.8 mphScattered Clouds
1:00 AM87.0 °F74.0 °F59 %29.70 in6.0 miSSW (210°)6.9 mphScattered Clouds
1:00 AM87.8 °F75.2 °F66 %29.68 in6.2 miSSW (210°)6.9 mphScattered Clouds
1:30 AM86.0 °F75.2 °F70 %29.68 in6.2 miSSW (210°)9.2 mphScattered Clouds
2:00 AM86.0 °F75.2 °F70 %29.68 in6.2 miSouth (190°)3.5 mphScattered Clouds
2:30 AM86.0 °F73.4 °F66 %29.68 in6.2 miSSW (210°)6.9 mphScattered Clouds
3:00 AM86.0 °F77.0 °F74 %29.68 in6.2 miSouth (180°)4.6 mphScattered Clouds
3:30 AM86.0 °F77.0 °F74 %29.68 in6.2 miSSE (160°)3.5 mphScattered Clouds
4:00 AM86.0 °F78.8 °F79 %29.68 in6.2 miSE (140°)1.2 mphMostly Cloudy
4:30 AM86.0 °F78.8 °F79 %29.68 in6.2 miESE (110°)3.5 mphMostly Cloudy
5:00 AM84.2 °F78.8 °F84 %29.71 in6.2 miESE (120°)4.6 mphMostly Cloudy
5:30 AM84.2 °F78.8 °F84 %29.71 in6.2 miSE (140°)5.8 mphMostly Cloudy
6:00 AM82.4 °F78.8 °F89 %29.71 in5.6 miESE (120°)2.3 mphMostly Cloudy
6:30 AM82.4 °F78.8 °F89 %29.71 in5.6 miCalmScattered Clouds
7:00 AM83.0 °F78.0 °F80 %29.75 in6.0 miSSE (150°)3.5 mphScattered Clouds
7:00 AM82.4 °F77.0 °F84 %29.74 in6.2 miSSE (150°)3.5 mphScattered Clouds
7:30 AM84.2 °F78.8 °F84 %29.74 in6.2 miESE (120°)4.6 mphScattered Clouds
8:00 AM86.0 °F78.8 °F79 %29.77 in6.2 miSSE (150°)4.6 mphScattered Clouds
8:30 AM87.8 °F78.8 °F75 %29.77 in6.2 miSouth (170°)5.8 mphScattered Clouds
9:00 AM89.6 °F77.0 °F66 %29.77 in6.2 miSSW (210°)4.6 mphScattered Clouds
9:30 AM91.4 °F77.0 °F63 %29.77 in6.2 miWSW (240°)4.6 mphMostly Cloudy
10:00 AM91.4 °F77.0 °F63 %29.77 in6.2 miWSW (250°)5.8 mphMostly Cloudy
10:30 AM93.2 °F75.2 °F56 %29.77 in6.2 miNW (310°)4.6 mphMostly Cloudy
11:00 AM93.2 °F75.2 °F56 %29.77 in6.2 miWest (270°)3.5 mphScattered Clouds
11:30 AM95.0 °F73.4 °F49 %29.74 in6.2 miWSW (240°)11.5 mphScattered Clouds
12:00 PM95.0 °F73.4 °F49 %29.74 in6.2 miWSW (250°)6.9 mphScattered Clouds
12:30 PM96.8 °F73.4 °F47 %29.74 in6.2 miSouth (170°)3.5 mphScattered Clouds
1:00 PM98.0 °F73.0 °F35 %29.73 in6.0 miWSW (240°)9.2 mphScattered Clouds
1:00 PM98.6 °F73.4 °F44 %29.71 in6.2 miWSW (240°)9.2 mphScattered Clouds
1:30 PM98.6 °F73.4 °F44 %29.71 in6.2 miSouth (180°)6.9 mphScattered Clouds
2:00 PM98.6 °F73.4 °F44 %29.68 in6.2 miSouth (170°)6.9 mphMostly Cloudy
2:30 PM98.6 °F73.4 °F44 %29.68 in6.2 miSSE (160°)11.5 mphMostly Cloudy
3:00 PM98.6 °F73.4 °F44 %29.65 in6.2 miSouth (170°)5.8 mphMostly Cloudy
3:30 PM96.8 °F73.4 °F47 %29.65 in6.2 miSouth (180°)4.6 mphMostly Cloudy
4:00 PM96.8 °F73.4 °F47 %29.65 in6.2 miSouth (190°)8.1 mphMostly Cloudy
4:30 PM96.8 °F73.4 °F47 %29.65 in6.2 miSouth (190°)5.8 mphMostly Cloudy
5:00 PM96.8 °F73.4 °F47 %29.65 in6.2 miSSW (200°)11.5 mphMostly Cloudy
5:30 PM96.8 °F73.4 °F47 %29.65 in6.2 miSSW (200°)9.2 mphMostly Cloudy
6:00 PM95.0 °F73.4 °F49 %29.65 in6.2 miSouth (180°)9.2 mphMostly Cloudy
6:30 PM93.2 °F73.4 °F52 %29.68 in6.2 miSouth (190°)10.4 mphMostly Cloudy
7:00 PM92.0 °F74.0 °F47 %29.69 in6.0 miSouth (180°)8.1 mphScattered Clouds
7:00 PM91.4 °F73.4 °F55 %29.68 in6.2 miSouth (180°)8.1 mphMostly Cloudy
7:30 PM91.4 °F75.2 °F59 %29.68 in6.2 miSouth (190°)6.9 mphMostly Cloudy
8:00 PM89.6 °F75.2 °F62 %29.71 in6.2 miSSW (210°)9.2 mphMostly Cloudy
8:30 PM89.6 °F75.2 °F62 %29.74 in6.2 miSSW (200°)11.5 mphScattered Clouds
9:00 PM89.6 °F77.0 °F66 %29.74 in6.2 miSSW (210°)10.4 mphScattered Clouds
9:30 PM87.8 °F77.0 °F70 %29.77 in6.2 miSW (220°)11.5 mphScattered Clouds
10:00 PM87.8 °F77.0 °F70 %29.77 in6.2 miSSW (210°)9.2 mphScattered Clouds
10:30 PM87.8 °F78.8 °F75 %29.77 in6.2 miSSW (200°)11.5 mphScattered Clouds
11:00 PM87.8 °F78.8 °F75 %29.77 in6.2 miSW (230°)9.2 mphScattered Clouds
11:30 PM87.8 °F78.8 °F75 %29.77 in6.2 miSSW (210°)10.4 mphScattered Clouds
Hourly data recorded from VTBD, located miles away from Bangkok, Thailand







STORIES FROM OUR PARTNERS